Regional Weather Roundup
Issued by NWS

Home | Current Version | Previous Version | Graphics & Text | Print | Product List | Glossary Off
Versions: 1 2 3 4 5 6 7 8 9 10 11 12 13 14 15 16 17 18 19 20 21 22 23 24 25 26 27 28 29 30 31 32 33 34 35 36 37 38 39 40 41 42 43 44 45 46 47 48 49 50

000
ASUS43 KTOP 080359
RWRKS

WEATHER ROUNDUP FOR KANSAS
NATIONAL WEATHER SERVICE GOODLAND KS
1000 PM CST SUN FEB 07 2016

NOTE:  "FAIR" INDICATES FEW OR NO CLOUDS BELOW 12,000 FEET WITH NO
SIGNIFICANT WEATHER AND/OR OBSTRUCTIONS TO VISIBILITY.

KSZ001>006-013>018-027>032-041>047-080500-
NORTHWEST KANSAS

CITY           SKY/WX    TMP DP  RH WIND       PRES   REMARKS
GOODLAND       CLOUDY    29  16  58 NW17      30.32R WCI  17
HAYS           CLEAR     36  16  44 NW23      30.23S WCI  24
HILL CITY      CLEAR     33  19  56 NW17G26   30.24R WCI  22
RUSSELL        CLEAR     34  22  61 W15       30.21R WCI  24
$$

KSZ061>065-074>080-084>089-080500-
SOUTHWEST KANSAS

CITY           SKY/WX    TMP DP  RH WIND       PRES   REMARKS
DODGE CITY     PTCLDY    34  15  46 NW22G31   30.30S WCI  22
ELKHART          N/A     30  11  45 NW12        N/A  WCI  20
GARDEN CITY    CLOUDY    34  16  47 NW14      30.33R WCI  25
GREAT BEND     CLEAR     36  18  48 NW20G25   30.24R WCI  25
LIBERAL        CLOUDY    34  12  40 NW13      30.36S WCI  25
$$

KSZ066>073-081>083-090>101-080500-
SOUTHEAST KANSAS

CITY           SKY/WX    TMP DP  RH WIND       PRES   REMARKS
CHANUTE        CLEAR     41  20  43 NW13      30.11S
COFFEYVILLE    PTCLDY    42  20  41 W9        30.14R
HUTCHINSON     CLEAR     36  20  52 NW17      30.19S WCI  26
MEDICINE LODGE   N/A     38  18  44 NW13G22   30.26R WCI  30
NEWTON         CLEAR     36  19  51 NW18      30.17S WCI  25
PARSONS        CLEAR     38  20  48 NW8       30.13S
WICHITA INTL   CLEAR     39  20  46 NW17G30   30.19R WCI  30
WICHITA JABRA  CLEAR     37  21  52 NW15G23   30.17S WCI  28
WINFIELD       CLEAR     38  22  52 NW17      30.20R WCI  28
$$

KSZ007>012-019>026-033>040-048>060-102>105-080500-
NORTHEAST KANSAS

CITY           SKY/WX    TMP DP  RH WIND       PRES   REMARKS
CONCORDIA      CLEAR     37  19  48 NW16G29   30.14R WCI  28
EMPORIA        PTCLDY    35  22  58 W12       30.10F WCI  27
LAWRENCE       CLOUDY    40  25  55 NW14G24   30.05F WCI  32
MANHATTAN      MOCLDY    37  21  52 W9        30.11F
OLATHE IND     CLOUDY    39  26  59 NW16G29   30.04F WCI  30
OLATHE EXE     CLOUDY    38  25  59 NW20G32   30.03S WCI  28
SALINA         CLEAR     38  20  48 W16       30.17S WCI  29
TOPEKA BILLARD CLOUDY    41  23  48 W12G20    30.06F
TOPEKA FORBES  CLOUDY    42  23  46 NW17G29   30.05F
$$



USA.gov is the U.S. government's official web portal to all federal, state and local government web resources and services.